Погода в Кызылорде

Погода в Кызылорде : погода сейчас, прогноз погоды и архив. Всё, что Вы хотите узнать о погоде в Кызылорде!

Хотите узнать прогноз погоды в Кызылорде? Тогда Вам сюда: Погода в Кызылорде

Поиск расширенной информации на нашем сайте:

Другие новости

Новости СМИ2

Главная страница сайта

Новости сайта

03.07.2017

Напоминаем, что на нашем специализированном сайте Метеоцентр.Азия вы можете получить высокодетализированные автоматические прогнозы погоды по пунктам России, СНГ и мира в авиационном формате (включающие направление и скорость ветра, видимость, явления погоды, количество и форму облачности, нижнюю и верхнюю границу облачности).

Рекомендуем: Цветы в шляпных коробках цветы в шляпных коробках.

Погода в Кызылорде - сегодня

Время (UTC), дата Ветер
(°,м/с) 
Видим.   Явления Облачность Т
(°С)
Тd
(°С)
f(%) Тe
(°С)
Pmin
(гПа)
dP
(гПа)
Po
(мм)
O2
(г/м3)
Тmin Tmax R s Состояние
почвы
21 18.09.17 тихо ()   н/о    ясно 
+19.9 +9.2 50 +20  1016.8  751  281           
00 19.09.17 360 (С) н/о    ясно 
+17.6 +8.8 56 +18  1017.6  0.6  752  283           
03 19.09.17 030 (СВ) 20000 м    ясно 
+18 +6.2 46 +19  1019  1.4  753  284           
06 19.09.17 020 (С) 20000 м    ясно 
+25.9 +9.3 35 +26  1020.2  1.6  754  276  +16.3         
09 19.09.17 040 (СВ) 20000 м    ясно 
+30.5 +8 25 +31  1019.4  -0.6  754  272           
12 19.09.17 030 (СВ) 20000 м    ясно 
+29.8 +7 24 +30  1019  -0.5  753  273           
15 19.09.17 010 (С) н/о    ясно 
+25.1 +6.7 31 +25  1020.4  1.2  754  277    +31.1       
18 19.09.17 030 (СВ) н/о    ясно 
+20.6 +6.8 41 +21  1021.4  0.8  755  282    +31.1       
21 19.09.17 030 (СВ) н/о    ясно 
+17.2 +6.7 50 +18  1021.5  -0.1  755  285           
00 20.09.17 050 (СВ) н/о    ясно 
+16.2 +7.1 55 +17  1021.3  -0.2  754  286           
03 20.09.17 040 (СВ) 20000 м    ясно 
+18 +7.1 49 +19  1021.2  754  284           
06 20.09.17 040 (СВ) 20000 м  пыльный позёмок  ясно 
+24.9 +1.5 22 +25  1020.8  -0.1  754  278  +1.4         
09 20.09.17 060 (СВ) 10{16}  2000 м  пыльная буря  ясно 
+28.6 +1.9 18 +29  1018.9  -1.7  753  274           
12 20.09.17 040 (СВ) 7{15}  20000 м  пыльная буря на расстоянии  ясно 
+28.7 -0.2 15 +29  1017.6  -1.3  752  274           
15 20.09.17 030 (СВ) 4{15}  н/о    ясно 
+24 +3.2 26 +24  1018  0.1  752  278    +29.4       
18 20.09.17 040 (СВ) н/о    ясно 
+21.4 +4.1 32 +21  1017.4  -0.6  752  280    +29.4       
21 20.09.17 050 (СВ) н/о    ясно 
+17.8 +6.2 47 +18  1016.8  -0.8  751  283           
00 21.09.17 030 (СВ) н/о    ясно 
+15.5 +5.5 51 +16  1016.8  -0.2  751  285           
03 21.09.17 040 (СВ) 20000 м    ясно 
+16.8 +4.6 44 +17  1016.8  0.2  751  284           
06 21.09.17 030 (СВ) 20000 м  пыльный позёмок  ясно 
+23.7 +0.9 22 +24  1015.7  -0.8  751  278  +13.8         
09 21.09.17 070 (В) 10{16}  2000 м  пыльная буря  ясно 
+28.8 +0.4 16 +29  1014  -1.4  749  273           
12 21.09.17 050 (СВ) 11-15{19}  0500 м  пыльная буря  ясно 
+29 +1.7 17 +29  1013.4  -0.6  749  273           
15 21.09.17 030 (СВ) 2{15}  н/о    ясно 
+23.7 +6.7 33 +24  1014  0.3  749  277    +29.8       
18 21.09.17 030 (СВ) н/о    ясно 
+20.8 +5 36 +21  1013.9  -0.2  749  280    +29.8       
21 21.09.17 020 (С) н/о    ясно 
+18.1 +4.8 41 +19  1013.4  -0.6  749  282           
Время (UTC), дата Ветер
(°,м/с) 
Видим.   Явления Облачность Т
(°С)
Тd
(°С)
f(%) Тe
(°С)
Pmin
(гПа)
dP
(гПа)
Po
(мм)
O2
(г/м3)
Тmin Tmax R s Состояние
почвы

Для получения пояснительной информации подведите курсор к названию столбца.

ПОГОДА в Кызылорде - архив

Всё, что Вы хотите узнать о погоде в Кызылорде - удобно и подробно!

Выберите нужную дату (начиная с 1 января 2015* года) и нажмите кнопку "Найти".
Будут отображены архивные сводки погоды по пункту Кызылорда, начиная с указанной даты.


Отображать данные в формате CSV (для использования в таблицах Excel)


Внимание! Наш архив погоды предназначен исключительно для личного некоммерческого использования в познавательных целях. Если Вам необходимы официальные справки о состоянии погоды (для производственных, юридических, коммерческих и т.п. целей), обращайтесь в органы Росгидромета.

*Примечание: данная дата относится к архиву по метеостанциям СССР (Россия, СНГ, Балтия).
Архив по метеостанциям Зарубежной Европы и Азии (кроме Китая) хранится 10 дней, по другим регионам земного шара (Китай, Африка, Америка, Австралия, Океания) - 1 день.

Кызылорда - район местоположения метеостанции


Название, широта, долгота, высота метеостанции:
Кызылорда (город) 44.8°ш. 65.5°д. 130 м над ур. моря [Казахстан]

Дополнительная информация

В oтличие oт бoльшинства пoгoдных сайтoв мы публикуем пoдрoбную метеoинфoрмацию в детальнoм прoфессиoнальнoм фoрмате.

Характеристики температуры и влажнoсти вoздуха измеряются на высoте 2 м в тени вдали oт зданий и деревьев.
Скoрoсть ветра измеряется на высoте 10 м (на урoвне рoста челoвека скoрoсть ветра ниже в 1.5-2 раза). Если метеoстанция нахoдится в гoрoде или в лесу, тo скoрoсть ветра занижена на 2-4 м/с пo сравнению с oткрытым местoм. Скoрoсть ветра над акватoриями крупных рек и oзёр, а также на вершинах хoлмoв на 2-5 м/с выше, чем в oбычных услoвиях.
Атмoсфернoе давление в разных тoчках местнoсти мoжет значительнo oтличаться oт давления на метеoстанции, в зависимoсти oт услoвий рельефа (при пoдъёме на 10 м давление пoнижается примернo на 1 мм рт.ст.).